Погода в Мордах

Польша     52°12′38″N   22°30′59″E
темп.,
°C
ветер,
м/с
пор.,
м/с
влажн.,
%
обл.,
%
осадки,
мм/ч
давл.,
гПа
погр.,
м
5 августа, чт
чт523:00+13зсз229549 0.0 101520
02:00+12ссз119633 0.0 101411
05:00+11св1197100 0.0 101410
08:00+15всв2387100 0.0 1013273
11:00+18всв4474100 0.0 1012641
14:00+17всв3582100 0.3 1011261
17:00+16всв4891100 0.6 1010415
20:00+15св51195100 1.1 1007433
6 августа, пт
пт623:00+14св71497100 5.6 1005567
02:00+14св61297100 11.7 1003573
05:00+13с71398100 9.1 1001525
08:00+13с61298100 25.6 1001658
11:00+12с61097100 4.8 1003522
14:00+13сз5796100 5.9 1005614
17:00+13сз5895100 0.4 1006509
20:00+12з4796100 1.5 1007310
7 августа, сб
сб723:00+11з48968 0.0 1008183
02:00+10зюз47960 0.0 1008137
05:00+10юз37950 0.0 1009128
08:00+15зюз46840 0.0 1009295
11:00+21зюз46665 0.0 1009921
14:00+23зюз565725 0.3 10091546
17:00+23з476030 0.8 10101613
20:00+20з227028 0.8 101012
8 августа, вс
вс823:00+17ююв237495 0.0 101118
02:00+16ююв3485100 0.0 101154
05:00+16юв41084100 0.0 1011165
08:00+19ююв51274100 0.0 1010353
11:00+24ююз695829 0.0 1010815
14:00+26зюз685747 0.0 10111524
17:00+23з676780 0.1 10131107
20:00+19зюз3778100 0.1 1014117
9 августа, пн
пн923:00+17з237799 0.0 101527
02:00+17з2273100 0.0 101638
05:00+16зсз61287100 0.9 1018411
08:00+18з477958 1.5 1018414
11:00+19з467371 0.1 1019639
14:00+22з575712 0.6 10181541
17:00+23з4652100 0.2 10191703
20:00+19з2263100 0.2 101921